Weather History for Prague, Czech Republic

Change the Weather History Date:

Thursday, April 4, 2013

  Actual Average Record
Temperature  
Mean Temperature 32 °F -  
Max Temperature 36 °F 57 °F 71 °F (2009)
Min Temperature 28 °F 37 °F 28 °F (2013)
Degree Days  
Heating Degree Days 33    
Moisture  
Dew Point 27 °F    
Average Humidity 82    
Maximum Humidity 93    
Minimum Humidity 63    
Precipitation  
Precipitation 0.00 in 0.06 in - ()
Sea Level Pressure  
Sea Level Pressure 29.86 in    
Wind  
Wind Speed 7 mph ()    
Max Wind Speed 11 mph    
Max Gust Speed -    
Visibility 5.2 miles    
Events      
Averages and records for this station are not official NWS values.
T = Trace of Precipitation, MM = Missing Value Source: Averaged Metar Reports

Daily Weather History Graph

Daily Weather History Graph

Search for Another Location

Airport:

Trip Planner

Search our weather history database for the weather conditions in past years. The results will help you decide how hot, cold, wet, or windy it might be!

Date:

Astronomy

Apr. 04, 2013 Rise Set
Actual Time 6:33 AM CEST 7:39 PM CEST
Civil Twilight 6:00 AM CEST 8:12 PM CEST
Nautical Twilight 5:20 AM CEST 8:53 PM CEST
Astronomical Twilight 4:37 AM CEST 9:36 PM CEST
Moon 3:22 AM CEST (4/4) 1:05 PM CEST (4/4)
Length of Visible Light 14h 12m
Length of Day
13h 06m
Last Quarter, 36% of the Moon is Illuminated
Apr 4
Last Quarter
Apr 10
New
Apr 18
First Quarter
Apr 25
Full
May 2
Last Quarter

Hourly Weather History & Observations

Time (CEST) Temp. Windchill Dew Point Humidity Pressure Visibility Wind Dir Wind Speed Gust Speed Precip Events Conditions
12:00 AM 30.2 °F 21.9 °F 24.8 °F 80% 29.92 in 6.2 mi NNE 9.2 mph - N/A   Overcast
12:30 AM 30.2 °F 24.3 °F 24.8 °F 80% 29.92 in 6.2 mi North 5.8 mph - N/A   Overcast
1:00 AM 30.2 °F 23.4 °F 24.8 °F 80% 29.92 in 6.2 mi North 6.9 mph - N/A   Overcast
1:30 AM 30.2 °F 23.4 °F 26.6 °F 86% 29.92 in 5.6 mi North 6.9 mph - N/A   Overcast
2:00 AM 29 °F - 26 °F 81% 29.98 in 6 mi North 6.7 mph - -   Overcast
2:00 AM 30.2 °F 22.6 °F 26.6 °F 86% 29.89 in 5.6 mi North 8.1 mph - N/A   Overcast
2:30 AM 30.2 °F 22.6 °F 26.6 °F 86% 29.89 in 6.2 mi North 8.1 mph - N/A   Overcast
3:00 AM 30.2 °F 24.3 °F 26.6 °F 86% 29.89 in 5.6 mi North 5.8 mph - N/A   Overcast
3:30 AM 28.4 °F 22.2 °F 26.6 °F 93% 29.89 in 5.6 mi North 5.8 mph - N/A   Mostly Cloudy
4:00 AM 28.4 °F 20.4 °F 26.6 °F 93% 29.86 in 5.0 mi NNW 8.1 mph - N/A   Mostly Cloudy
4:30 AM 28.4 °F 21.2 °F 26.6 °F 93% 29.86 in 5.0 mi North 6.9 mph - N/A   Overcast
5:00 AM 28.4 °F 21.2 °F 26.6 °F 93% 29.86 in 5.0 mi North 6.9 mph - N/A   Overcast
5:30 AM 28.4 °F 22.2 °F 26.6 °F 93% 29.86 in 5.0 mi North 5.8 mph - N/A   Overcast
6:00 AM 28.4 °F 22.2 °F 26.6 °F 93% 29.86 in 5.0 mi NNW 5.8 mph - N/A   Overcast
6:30 AM 28.4 °F 22.2 °F 26.6 °F 93% 29.86 in 3.1 mi North 5.8 mph - N/A   Overcast
7:00 AM 28.4 °F 22.2 °F 26.6 °F 93% 29.86 in 3.1 mi North 5.8 mph - N/A   Overcast
7:30 AM 28.4 °F 20.4 °F 26.6 °F 93% 29.86 in 3.1 mi North 8.1 mph - N/A   Overcast
8:00 AM 29 °F - 26 °F 86% 29.93 in 3 mi NNW 8.9 mph - -   Mist
8:00 AM 28.4 °F 20.4 °F 26.6 °F 93% 29.86 in 3.1 mi North 8.1 mph - N/A   Overcast
8:30 AM 30.2 °F 22.6 °F 26.6 °F 86% 29.86 in 3.1 mi North 8.1 mph - N/A   Overcast
9:00 AM 30.2 °F 22.6 °F 26.6 °F 86% 29.86 in 3.1 mi NNW 8.1 mph - N/A   Overcast
9:30 AM 30.2 °F 21.9 °F 28.4 °F 93% 29.86 in - NNW 9.2 mph - N/A   Overcast
10:00 AM 30.2 °F 21.3 °F 28.4 °F 93% 29.86 in 3.1 mi NNW 10.4 mph - N/A   Overcast
10:30 AM 30.2 °F 21.9 °F 26.6 °F 86% 29.86 in 3.1 mi North 9.2 mph - N/A   Overcast
11:00 AM 32.0 °F 24.8 °F 28.4 °F 87% 29.86 in 4.3 mi North 8.1 mph - N/A   Overcast
11:30 AM 32.0 °F 25.6 °F 26.6 °F 80% 29.86 in 4.3 mi North 6.9 mph - N/A   Overcast
12:00 PM 32.0 °F 26.4 °F 26.6 °F 80% 29.86 in 6.2 mi North 5.8 mph - N/A   Overcast
12:30 PM 33.8 °F 28.6 °F 26.6 °F 75% 29.86 in 6.2 mi NNW 5.8 mph - N/A   Overcast
1:00 PM 33.8 °F 28.6 °F 26.6 °F 75% 29.86 in 6.2 mi North 5.8 mph - N/A   Overcast
1:30 PM 33.8 °F 27.7 °F 26.6 °F 75% 29.86 in 6.2 mi NNW 6.9 mph - N/A   Overcast
2:00 PM 35 °F - 27 °F 63% 29.92 in 6 mi NNW 6.7 mph - -   Overcast
2:00 PM 35.6 °F 29.9 °F 26.6 °F 70% 29.86 in 6.2 mi NW 6.9 mph - N/A   Overcast
2:30 PM 35.6 °F 30.7 °F 26.6 °F 70% 29.86 in 5.6 mi NW 5.8 mph - N/A   Overcast
3:00 PM 35.6 °F 30.7 °F 26.6 °F 70% 29.86 in 5.6 mi NW 5.8 mph - N/A   Overcast
3:30 PM 35.6 °F 30.7 °F 26.6 °F 70% 29.83 in 5.6 mi NW 5.8 mph - N/A   Overcast
4:00 PM 35.6 °F 30.7 °F 26.6 °F 70% 29.83 in 6.2 mi NNW 5.8 mph - N/A   Overcast
4:30 PM 35.6 °F 29.2 °F 26.6 °F 70% 29.83 in 6.2 mi NNW 8.1 mph - N/A   Overcast
5:00 PM 35.6 °F 30.7 °F 26.6 °F 70% 29.83 in 6.2 mi North 5.8 mph - N/A   Overcast
5:30 PM 35.6 °F 31.7 °F 26.6 °F 70% 29.83 in 6.2 mi NNW 4.6 mph - N/A   Overcast
6:00 PM 35.6 °F 29.9 °F 26.6 °F 70% 29.83 in 6.2 mi NW 6.9 mph - N/A   Overcast
6:30 PM 35.6 °F 29.2 °F 26.6 °F 70% 29.83 in 6.2 mi NNW 8.1 mph - N/A   Overcast
7:00 PM 33.8 °F 27.0 °F 26.6 °F 75% 29.83 in 6.2 mi North 8.1 mph - N/A   Overcast
7:30 PM 33.8 °F 26.4 °F 28.4 °F 81% 29.83 in 6.2 mi North 9.2 mph - N/A   Overcast
8:00 PM 34 °F - 28 °F 71% 29.88 in 5 mi North 11.2 mph - -   Mist
8:00 PM 33.8 °F 26.4 °F 28.4 °F 81% 29.80 in 5.0 mi North 9.2 mph - N/A   Mostly Cloudy
8:30 PM 33.8 °F 25.8 °F 28.4 °F 81% 29.83 in 5.6 mi North 10.4 mph - N/A   Mostly Cloudy
9:00 PM 32.0 °F 25.6 °F 28.4 °F 87% 29.83 in 5.6 mi North 6.9 mph - N/A   Mostly Cloudy
9:30 PM 32.0 °F 26.4 °F 28.4 °F 87% 29.83 in 5.6 mi North 5.8 mph - N/A   Mostly Cloudy
10:00 PM 32.0 °F 26.4 °F 28.4 °F 87% 29.83 in 5.0 mi North 5.8 mph - N/A   Mostly Cloudy
10:30 PM 32.0 °F 24.8 °F 28.4 °F 87% 29.83 in 5.0 mi North 8.1 mph - N/A   Mostly Cloudy
11:00 PM 32.0 °F 26.4 °F 28.4 °F 87% 29.83 in 4.3 mi North 5.8 mph - N/A   Mostly Cloudy
11:30 PM 32.0 °F 25.6 °F 28.4 °F 87% 29.83 in 4.3 mi North 6.9 mph - N/A   Mostly Cloudy